DateTimeUTC,F1_A11,F1_S11,BsB_S11,BsG_S11,BsR_S11,BbsB_S11,BbsG_S11,BbsR_S11,BaB_A11,BaG_A11,BaR_A11,Tu_S11,T_S11,Uu_S11,U_S11,P_S11,T1_A11
2021-06-27T05:00:00Z,00000200,21000000,,,,,,,-000.29,0000.13,-000.11,18.4,25.5,00.6,00.4,0671.0,31.1
2021-06-27T05:01:00Z,00000200,21000000,,,,,,,-000.05,-000.37,-000.00,18.4,25.6,00.6,00.4,0671.0,31.1
2021-06-27T05:02:00Z,00000200,21000000,,,,,,,0000.34,0000.55,0000.20,18.3,25.6,00.6,00.4,0670.9,31.1
2021-06-27T05:03:00Z,00000200,61000000,,,,,,,0000.20,-000.03,0000.39,18.3,25.6,00.6,00.4,0670.9,31.1
2021-06-27T05:04:00Z,00000200,41000000,0000.34,0000.03,-000.05,-000.27,0000.34,0000.18,0000.19,0000.22,-000.14,18.5,25.3,00.9,00.6,0671.8,31.1
2021-06-27T05:05:00Z,00000200,01000000,0000.72,0000.01,-000.46,-000.41,-000.04,0000.05,0000.03,0000.29,0000.11,18.6,25.3,00.9,00.6,0671.9,31.1
2021-06-27T05:06:00Z,00000200,01000000,0000.22,-000.01,-000.08,0000.42,-000.12,0000.07,0000.10,0000.25,0000.02,18.7,25.3,00.8,00.6,0672.0,31.1
2021-06-27T05:07:00Z,00000200,01000000,0000.45,0000.18,0000.19,-000.11,-000.00,-000.23,0000.06,-000.22,0000.07,18.7,25.3,01.0,00.7,0672.0,31.1
2021-06-27T05:08:00Z,00000200,01000000,-000.15,-000.01,0000.07,0000.04,-000.15,0000.07,0000.15,-000.23,0000.06,18.8,25.4,00.9,00.6,0672.0,31.1
2021-06-27T05:09:00Z,00000200,01000000,-000.12,0000.18,0000.03,-000.14,0000.19,0000.06,-000.04,0000.18,0000.36,18.7,25.4,01.0,00.7,0672.0,31.1
2021-06-27T05:10:00Z,00000200,01000000,0000.31,0000.18,0000.11,-000.01,-000.07,-000.01,-000.12,-000.17,-000.36,18.7,25.4,01.0,00.6,0672.0,31.2
2021-06-27T05:11:00Z,00000200,01000000,-000.18,0000.13,0000.20,0000.10,-000.06,0000.21,0000.09,-000.11,-000.11,18.7,25.3,01.2,00.8,0672.0,31.1
2021-06-27T05:12:00Z,00000200,01000000,0000.49,0000.08,0000.03,0000.36,-000.12,0000.20,-000.14,-000.15,0000.04,18.6,25.3,01.1,00.7,0672.0,31.1
2021-06-27T05:13:00Z,00000200,01000000,0000.18,-000.13,0000.12,-000.09,0000.04,0000.08,0000.05,0000.43,-000.24,18.5,25.2,01.2,00.8,0671.9,31.1
2021-06-27T05:14:00Z,00000200,01000000,-000.12,-000.05,0000.03,-000.12,0000.05,-000.10,0000.02,-000.20,0000.26,18.4,25.2,01.2,00.8,0671.9,31.1
2021-06-27T05:15:00Z,00000200,01000000,-000.43,0000.02,0000.12,-000.13,0000.09,-000.06,0000.28,0000.11,0000.13,18.4,25.2,01.2,00.8,0671.9,31.1
2021-06-27T05:16:00Z,00000200,01000000,0000.56,-000.11,0000.28,-000.39,-000.04,-000.07,-000.13,0000.13,0000.07,18.4,25.2,01.3,00.9,0671.9,31.1
2021-06-27T05:17:00Z,00000200,01000000,0000.27,0000.20,-000.08,-000.01,-000.22,-000.18,0000.27,-000.40,0000.03,18.3,25.1,01.3,00.8,0671.9,31.1
2021-06-27T05:18:00Z,00000200,01000000,0000.16,0000.21,0000.29,0000.10,0000.10,0000.11,0000.40,0000.78,0000.27,18.3,25.1,01.3,00.9,0671.9,31.1
2021-06-27T05:19:00Z,00000200,01000000,0000.22,0000.12,0000.03,-000.11,0000.23,0000.01,-000.17,0000.18,0000.02,18.4,25.1,01.4,00.9,0671.9,31.1
2021-06-27T05:20:00Z,00000200,01000000,0000.04,0000.10,0000.08,-000.14,0000.15,0000.10,0000.30,0000.21,0000.35,18.5,25.1,01.5,01.0,0672.0,31.1
2021-06-27T05:21:00Z,00000200,01000000,-000.00,0000.06,-000.07,0000.05,0000.15,-000.10,0000.09,0000.06,-000.05,18.5,25.2,01.4,00.9,0672.0,31.1
2021-06-27T05:22:00Z,00000200,01000000,0000.17,0000.28,0000.24,0000.14,0000.31,0000.32,0000.20,0000.26,0000.09,18.6,25.2,01.4,01.0,0672.0,31.1
2021-06-27T05:23:00Z,00000200,01000000,0000.01,0000.17,-000.18,-000.32,-000.05,-000.10,-000.30,-000.23,-000.27,18.6,25.2,01.3,00.9,0672.0,31.1
2021-06-27T05:24:00Z,00000200,01000000,-000.41,0000.16,-000.21,-000.22,0000.28,-000.15,0000.09,-000.07,0000.04,18.6,25.2,01.4,01.0,0672.0,31.1
2021-06-27T05:25:00Z,00000200,01000000,-000.44,-000.03,0000.11,0000.01,-000.13,0000.10,-000.11,-000.53,-000.13,18.6,25.2,01.5,01.0,0672.0,31.1
2021-06-27T05:26:00Z,00000200,01000000,-000.11,0000.27,0000.06,0000.15,0000.10,0000.27,-000.01,0000.20,-000.30,18.5,25.2,01.5,01.0,0672.0,31.1
2021-06-27T05:27:00Z,00000200,01000000,0000.72,0000.11,0000.39,-000.17,0000.03,0000.02,0000.01,-000.11,0000.38,18.5,25.1,01.4,00.9,0672.0,31.1
2021-06-27T05:28:00Z,00000200,01000000,-000.36,0000.19,0000.25,0000.08,0000.24,0000.44,-000.06,0000.26,-000.15,18.4,25.1,01.5,01.0,0672.0,31.1
2021-06-27T05:29:00Z,00000200,01000000,0000.42,0000.33,0000.36,0000.10,0000.32,0000.20,-000.09,-000.10,-000.04,18.3,25.1,01.5,01.0,0672.0,31.1
2021-06-27T05:30:00Z,00000200,01000000,0000.68,0000.01,-000.02,-000.36,0000.34,-000.09,0000.24,-000.17,-000.20,18.3,25.0,01.5,01.0,0672.0,31.1
2021-06-27T05:31:00Z,00000200,01000000,-000.02,0000.05,-000.05,0000.16,-000.24,0000.18,-000.12,-000.08,0000.34,18.2,25.0,01.5,01.0,0672.0,31.1
2021-06-27T05:32:00Z,00000200,01000000,-000.06,0000.06,0000.30,0000.11,0000.26,0000.34,0000.39,0000.43,0000.16,18.2,24.9,01.5,01.0,0672.0,31.1
2021-06-27T05:33:00Z,00000200,01000000,-000.10,-000.06,-000.27,0000.20,0000.15,-000.02,-000.25,-000.02,-000.15,18.2,24.9,01.6,01.0,0671.9,31.1
2021-06-27T05:34:00Z,00000200,01000000,0000.16,-000.33,0000.08,0000.11,-000.11,0000.04,0000.45,0000.16,0000.24,18.3,25.0,01.5,01.0,0672.0,31.1
2021-06-27T05:35:00Z,00000200,01000000,-000.37,0000.27,0000.02,-000.07,-000.05,0000.15,-000.11,0000.30,0000.20,18.4,25.0,01.5,01.0,0671.9,31.1
2021-06-27T05:36:00Z,00000200,01000000,0000.06,-000.17,-000.27,-000.41,-000.19,0000.20,0000.18,0000.04,-000.09,18.4,25.0,01.6,01.1,0672.0,31.1
2021-06-27T05:37:00Z,00000200,01000000,-000.25,-000.04,0000.39,0000.04,0000.11,0000.04,0000.03,0000.10,0000.28,18.5,25.0,01.6,01.1,0672.0,31.1
2021-06-27T05:38:00Z,00000200,01000000,0000.11,0000.15,0000.18,-000.26,0000.08,0000.06,0000.12,-000.09,-000.15,18.6,25.1,01.6,01.1,0672.0,31.2
2021-06-27T05:39:00Z,00000200,01000000,0000.22,0000.11,0000.13,-000.02,-000.13,0000.05,-000.01,0000.21,0000.19,18.6,25.1,01.6,01.1,0672.0,31.1
2021-06-27T05:40:00Z,00000200,01000000,0000.44,0000.27,-000.04,0000.34,0000.01,-000.12,0000.31,0000.22,0000.05,18.7,25.2,01.6,01.1,0672.0,31.1
2021-06-27T05:41:00Z,00000200,01000000,0000.49,0000.01,0000.01,0000.12,-000.12,0000.06,-000.37,-000.42,-000.24,18.6,25.1,01.8,01.2,0672.0,31.1
2021-06-27T05:42:00Z,00000200,01000000,0000.27,0000.23,0000.05,0000.21,0000.05,0000.17,-000.16,0000.25,-000.16,18.6,25.1,01.7,01.1,0672.0,31.1
2021-06-27T05:43:00Z,00000200,01000000,-000.63,0000.13,-000.05,-000.29,-000.07,0000.14,-000.07,-000.16,-000.01,18.5,25.1,01.7,01.2,0672.0,31.1
2021-06-27T05:44:00Z,00000200,01000000,0000.15,-000.06,0000.22,0000.06,0000.16,0000.01,0000.00,-000.52,-000.16,18.5,25.1,01.7,01.2,0672.0,31.1
2021-06-27T05:45:00Z,00000200,01000000,0000.19,-000.03,0000.03,-000.33,0000.08,-000.01,0000.19,0000.24,0000.10,18.4,25.0,01.7,01.1,0672.0,31.1
2021-06-27T05:46:00Z,00000200,01000000,-000.09,0000.24,0000.17,0000.45,0000.24,0000.04,-000.23,0000.04,-000.24,18.3,25.0,01.8,01.2,0672.0,31.1
2021-06-27T05:47:00Z,00000200,01000000,-000.35,0000.01,0000.13,0000.04,-000.02,0000.28,0000.30,0000.20,0000.34,18.3,25.0,01.7,01.1,0672.0,31.1
2021-06-27T05:48:00Z,00000200,01000000,0000.46,0000.15,-000.18,0000.03,-000.02,0000.12,0000.31,0000.04,-000.03,18.3,25.0,01.7,01.1,0672.0,31.1
2021-06-27T05:49:00Z,00000200,01000000,0000.57,-000.04,-000.11,-000.62,-000.15,0000.18,0000.24,0000.02,0000.46,18.4,25.0,01.7,01.2,0672.0,31.1
2021-06-27T05:50:00Z,00000200,01000000,0000.54,0000.09,0000.24,-000.28,0000.17,0000.12,-000.21,0000.34,-000.05,18.5,25.0,01.7,01.2,0672.0,31.1
2021-06-27T05:51:00Z,00000200,01000000,0000.04,0000.15,0000.00,0000.14,0000.02,0000.07,0000.40,0000.10,0000.08,18.5,25.0,01.7,01.1,0672.0,31.1
2021-06-27T05:52:00Z,00000200,01000000,0000.08,0000.48,-000.06,0000.64,0000.27,0000.19,-000.31,-000.20,0000.06,18.6,25.1,01.7,01.2,0672.0,31.1
2021-06-27T05:53:00Z,00000200,00000000,0000.14,0000.23,-000.23,0000.10,0000.19,-000.27,0000.04,0000.22,-000.05,18.7,25.1,01.7,01.2,0672.0,31.1
2021-06-27T05:54:00Z,00000200,01000000,0000.09,-000.01,0000.19,0000.38,0000.20,0000.30,0000.15,-000.08,0000.12,18.8,25.2,01.7,01.2,0672.0,31.2
2021-06-27T05:55:00Z,00000200,01000000,0000.70,0000.13,0000.07,-000.14,0000.11,0000.10,-000.07,0000.07,-000.13,18.8,25.2,01.8,01.2,0672.0,31.1
2021-06-27T05:56:00Z,00000200,01000000,0000.17,0000.52,-000.11,-000.56,-000.13,-000.08,-000.14,-000.07,-000.02,18.7,25.2,01.8,01.2,0672.0,31.1
2021-06-27T05:57:00Z,00000200,40000000,,,,,,,-000.25,-000.04,-000.38,18.8,25.2,01.6,01.1,0672.0,31.2
2021-06-27T05:58:00Z,00000200,61000000,,,,,,,0000.07,-000.32,0000.06,18.4,25.3,01.5,01.0,0671.0,31.2
2021-06-27T05:59:00Z,00000200,20000000,,,,,,,0000.00,0000.30,0000.18,18.3,25.4,01.5,01.0,0671.0,31.1
